Weather History for KCRG - February, 2013

Change the Weather History Date:

Saturday, February 16, 2013

  Actual Average Record
Temperature  
Mean Temperature 52 °F -  
Max Temperature 60 °F 66 °F 82 °F (2001)
Min Temperature 42 °F 47 °F 37 °F (2007)
Degree Days  
Heating Degree Days 14    
Growing Degree Days 2 (Base 50)    
Moisture  
Dew Point 38 °F    
Average Humidity 68    
Maximum Humidity 90    
Minimum Humidity 40    
Precipitation  
Precipitation 0.01 in - - ()
Sea Level Pressure  
Sea Level Pressure 29.99 in    
Wind  
Wind Speed 5 mph (WNW)    
Max Wind Speed 23 mph    
Max Gust Speed 34 mph    
Visibility 9 miles    
Events Rain    
Averages and records for this station are not official NWS values.
T = Trace of Precipitation, MM = Missing Value Source: NWS Daily Summary

Daily Weather History Graph

Daily Weather History Graph

Search for Another Location

Airport or City:

Trip Planner

Search our weather history database for the weather conditions in past years. The results will help you decide how hot, cold, wet, or windy it might be!

Date:

Astronomy

Feb. 16, 2013 Rise Set
Actual Time 7:05 AM EST 6:15 PM EST
Civil Twilight 6:40 AM EST 6:39 PM EST
Nautical Twilight 6:12 AM EST 7:08 PM EST
Astronomical Twilight 5:44 AM EST 7:36 PM EST
Moon 10:48 AM EST (2/16) No Moon Set
Length of Visible Light 11h 59m
Length of Day
11h 10m
Waxing Crescent, 39% of the Moon is Illuminated
Feb 16
Waxing Crescent
Feb 17
First Quarter
Feb 25
Full
Mar 4
Last Quarter
Mar 11
New

Hourly Weather History & Observations

Time (EST) Temp. Windchill Dew Point Humidity Pressure Visibility Wind Dir Wind Speed Gust Speed Precip Events Conditions
12:53 AM 45.0 °F - 41.0 °F 86% 30.01 in 10.0 mi Calm Calm - N/A   Clear
1:53 AM 45.0 °F - 42.1 °F 90% 29.99 in 8.0 mi Calm Calm - N/A   Clear
2:53 AM 46.0 °F - 42.1 °F 86% 29.97 in 8.0 mi Calm Calm - N/A   Clear
3:53 AM 46.9 °F - 43.0 °F 86% 29.95 in 8.0 mi Calm Calm - N/A   Clear
4:53 AM 46.9 °F - 42.1 °F 83% 29.94 in 9.0 mi Calm Calm - N/A   Clear
5:53 AM 48.0 °F - 44.1 °F 86% 29.94 in 7.0 mi Calm Calm - N/A   Clear
6:53 AM 48.0 °F - 44.1 °F 86% 29.94 in 8.0 mi Calm Calm - N/A   Clear
7:53 AM 48.9 °F - 44.1 °F 83% 29.94 in 10.0 mi Calm Calm - N/A   Clear
8:53 AM 53.1 °F - 44.1 °F 71% 29.94 in 10.0 mi West 5.8 mph - N/A   Clear
9:53 AM 54.0 °F - 39.9 °F 59% 29.95 in 10.0 mi West 5.8 mph - N/A   Clear
10:53 AM 55.0 °F - 39.0 °F 55% 29.95 in 10.0 mi West 5.8 mph - N/A   Clear
11:53 AM 57.0 °F - 39.0 °F 51% 29.94 in 10.0 mi West 13.8 mph 20.7 mph N/A   Clear
12:53 PM 60.1 °F - 37.0 °F 42% 29.94 in 10.0 mi NW 20.7 mph 28.8 mph N/A   Partly Cloudy
1:53 PM 54.0 °F - 36.0 °F 51% 29.96 in 10.0 mi NNW 23.0 mph 34.5 mph N/A   Mostly Cloudy
2:53 PM 48.9 °F - 37.0 °F 64% 29.98 in 10.0 mi NW 20.7 mph 27.6 mph 0.00 in Rain Light Rain
3:53 PM 48.9 °F - 36.0 °F 61% 29.96 in 10.0 mi West 9.2 mph 17.3 mph 0.00 in   Overcast
4:53 PM 50.0 °F - 36.0 °F 59% 29.96 in 10.0 mi WNW 10.4 mph - N/A   Mostly Cloudy
5:53 PM 46.0 °F 39.3 °F 39.0 °F 76% 30.00 in 5.0 mi NW 16.1 mph 26.5 mph 0.01 in Rain Rain
6:53 PM 46.0 °F 43.9 °F 39.0 °F 76% 30.00 in 10.0 mi West 4.6 mph - 0.00 in   Mostly Cloudy
7:53 PM 45.0 °F 41.2 °F 39.0 °F 80% 30.03 in 10.0 mi WNW 6.9 mph - N/A   Partly Cloudy
8:53 PM 45.0 °F 39.3 °F 36.0 °F 71% 30.06 in 10.0 mi NW 11.5 mph - N/A   Mostly Cloudy
9:53 PM 44.1 °F 37.4 °F 27.0 °F 51% 30.10 in 10.0 mi WNW 13.8 mph - N/A   Clear
10:53 PM 43.0 °F 35.1 °F 21.9 °F 43% 30.13 in 10.0 mi NW 17.3 mph 24.2 mph N/A   Clear
11:53 PM 42.1 °F 35.7 °F 19.0 °F 40% 30.15 in 10.0 mi NW 11.5 mph - N/A   Clear